Weather History for KGLY - April, 2013

Change the Weather History Date:

Monday, April 22, 2013

  Actual Average (KSZL) Record (KSZL)
Temperature  
Mean Temperature 58 °F -  
Max Temperature 69 °F 65 °F 80 °F (2006)
Min Temperature 48 °F 46 °F 39 °F (2002)
Degree Days  
Heating Degree Days 6    
Growing Degree Days 8 (Base 50)    
Moisture  
Dew Point 41 °F    
Average Humidity 50    
Maximum Humidity 77    
Minimum Humidity 35    
Precipitation  
Precipitation 0.00 in - - ()
Sea Level Pressure  
Sea Level Pressure 30.06 in    
Wind  
Wind Speed 8 mph (SSE)    
Max Wind Speed 14 mph    
Max Gust Speed 21 mph    
Visibility 10 miles    
Events Rain , Thunderstorm    
Averages and records for this station are not official NWS values.
T = Trace of Precipitation, MM = Missing Value Source: NWS Daily Summary

Daily Weather History Graph

Daily Weather History Graph

Search for Another Location

Airport or City:

Trip Planner

Search our weather history database for the weather conditions in past years. The results will help you decide how hot, cold, wet, or windy it might be!

Date:

Astronomy

Apr. 22, 2013 Rise Set
Actual Time 6:28 AM CDT 7:58 PM CDT
Civil Twilight 6:01 AM CDT 8:25 PM CDT
Nautical Twilight 5:27 AM CDT 8:59 PM CDT
Astronomical Twilight 4:52 AM CDT 9:34 PM CDT
Moon 4:50 PM CDT (4/22) 4:21 AM CDT (4/22)
Length of Visible Light 14h 24m
Length of Day
13h 29m
Waxing Gibbous, 88% of the Moon is Illuminated
Apr 22
Waxing Gibbous
Apr 25
Full
May 2
Last Quarter
May 9
New
May 17
First Quarter

Hourly Weather History & Observations

Time (CDT) Temp. Dew Point Humidity Pressure Visibility Wind Dir Wind Speed Gust Speed Precip Events Conditions
12:15 AM 57.2 °F 39.2 °F 51% 30.19 in 10.0 mi SSE 9.2 mph - N/A   Mostly Cloudy
12:35 AM 57.2 °F 39.2 °F 51% 30.19 in 10.0 mi SSE 10.4 mph - N/A   Overcast
12:55 AM 57.2 °F 39.2 °F 51% 30.19 in 10.0 mi SSE 10.4 mph - N/A   Overcast
1:15 AM 57.2 °F 39.2 °F 51% 30.18 in 10.0 mi SSE 10.4 mph - N/A   Overcast
1:35 AM 57.2 °F 39.2 °F 51% 30.18 in 10.0 mi SSE 12.7 mph 20.7 mph N/A   Overcast
1:55 AM 55.4 °F 39.2 °F 54% 30.18 in 10.0 mi SSE 10.4 mph 17.3 mph N/A   Mostly Cloudy
2:55 AM 53.6 °F 39.2 °F 58% 30.16 in 10.0 mi SSE 8.1 mph - N/A   Clear
3:15 AM 53.6 °F 39.2 °F 58% 30.16 in 10.0 mi SSE 9.2 mph - N/A   Clear
3:35 AM 53.6 °F 39.2 °F 58% 30.15 in 10.0 mi SSE 9.2 mph - N/A   Clear
3:55 AM 53.6 °F 39.2 °F 58% 30.15 in 10.0 mi SSE 9.2 mph - N/A   Clear
4:35 AM 51.8 °F 39.2 °F 62% 30.15 in 10.0 mi South 6.9 mph - N/A   Clear
4:55 AM 51.8 °F 39.2 °F 62% 30.15 in 10.0 mi SSE 4.6 mph - N/A   Partly Cloudy
5:15 AM 51.8 °F 39.2 °F 62% 30.15 in 10.0 mi Calm Calm - N/A   Mostly Cloudy
5:35 AM 51.8 °F 39.2 °F 62% 30.15 in 10.0 mi SSE 4.6 mph - N/A   Mostly Cloudy
5:55 AM 51.8 °F 39.2 °F 62% 30.14 in 10.0 mi Calm Calm - N/A   Partly Cloudy
6:15 AM 50.0 °F 39.2 °F 66% 30.14 in 10.0 mi Calm Calm - N/A   Clear
6:35 AM 50.0 °F 39.2 °F 66% 30.15 in 10.0 mi Calm Calm - N/A   Clear
6:55 AM 48.2 °F 39.2 °F 71% 30.15 in 10.0 mi SE 4.6 mph - N/A   Clear
7:15 AM 48.2 °F 39.2 °F 71% 30.15 in 10.0 mi Calm Calm - N/A   Clear
7:55 AM 53.6 °F 39.2 °F 58% 30.16 in 10.0 mi SSE 5.8 mph - N/A   Clear
8:15 AM 53.6 °F 39.2 °F 58% 30.15 in 10.0 mi SSE 8.1 mph - N/A   Clear
8:35 AM 55.4 °F 39.2 °F 54% 30.15 in 10.0 mi South 11.5 mph - N/A   Clear
8:55 AM 55.4 °F 39.2 °F 54% 30.14 in 10.0 mi SSE 10.4 mph - N/A   Clear
9:15 AM 57.2 °F 39.2 °F 51% 30.14 in 10.0 mi South 10.4 mph 16.1 mph N/A   Clear
9:35 AM 60.8 °F 39.2 °F 45% 30.13 in 10.0 mi SSE 9.2 mph - N/A   Clear
9:55 AM 62.6 °F 41.0 °F 45% 30.13 in 10.0 mi SSE 8.1 mph - N/A   Clear
10:15 AM 62.6 °F 41.0 °F 45% 30.13 in 10.0 mi South 11.5 mph - N/A   Clear
10:35 AM 64.4 °F 42.8 °F 45% 30.12 in 10.0 mi South 12.7 mph - N/A   Clear
10:55 AM 64.4 °F 42.8 °F 45% 30.12 in 10.0 mi South 9.2 mph - N/A   Partly Cloudy
11:15 AM 64.4 °F 41.0 °F 42% 30.12 in 10.0 mi South 9.2 mph - N/A   Clear
11:35 AM 64.4 °F 42.8 °F 45% 30.11 in 10.0 mi South 9.2 mph - N/A   Clear
11:55 AM 66.2 °F 42.8 °F 43% 30.11 in 10.0 mi South 9.2 mph - N/A   Clear
12:15 PM 66.2 °F 42.8 °F 43% 30.10 in 10.0 mi South 5.8 mph - N/A   Clear
12:35 PM 66.2 °F 42.8 °F 43% 30.08 in 10.0 mi South 5.8 mph - N/A   Clear
12:55 PM 66.2 °F 42.8 °F 43% 30.07 in 10.0 mi South 10.4 mph - N/A   Partly Cloudy
1:15 PM 68.0 °F 42.8 °F 40% 30.06 in 10.0 mi South 8.1 mph - N/A   Partly Cloudy
1:35 PM 69.8 °F 42.8 °F 38% 30.05 in 10.0 mi SE 9.2 mph - N/A   Partly Cloudy
1:55 PM 69.8 °F 42.8 °F 38% 30.03 in 10.0 mi South 12.7 mph 19.6 mph N/A   Clear
2:15 PM 69.8 °F 41.0 °F 35% 30.02 in 10.0 mi South 11.5 mph - N/A   Clear
2:35 PM 68.0 °F 41.0 °F 37% 30.01 in 10.0 mi SE 13.8 mph 17.3 mph N/A   Partly Cloudy
2:55 PM 68.0 °F 39.2 °F 35% 29.99 in 10.0 mi SSE 12.7 mph - N/A   Partly Cloudy
3:15 PM 66.2 °F 39.2 °F 37% 29.98 in 10.0 mi SE 12.7 mph - N/A   Clear
3:35 PM 66.2 °F 37.4 °F 35% 29.96 in 10.0 mi SSE 11.5 mph - N/A   Clear
3:55 PM 66.2 °F 39.2 °F 37% 29.96 in 10.0 mi SE 9.2 mph - N/A   Clear
4:15 PM 66.2 °F 37.4 °F 35% 29.97 in 10.0 mi South 10.4 mph - N/A   Clear
4:35 PM 66.2 °F 39.2 °F 37% 29.97 in 10.0 mi South 8.1 mph - N/A   Clear
4:55 PM 64.4 °F 39.2 °F 40% 29.96 in 10.0 mi South 5.8 mph - N/A   Clear
5:15 PM 64.4 °F 39.2 °F 40% 29.97 in 10.0 mi Calm Calm - N/A   Partly Cloudy
5:35 PM 64.4 °F 41.0 °F 42% 29.94 in 10.0 mi Calm Calm - N/A   Scattered Clouds
5:55 PM 64.4 °F 41.0 °F 42% 29.92 in 10.0 mi ESE 6.9 mph - N/A   Scattered Clouds
6:15 PM 64.4 °F 41.0 °F 42% 29.94 in 10.0 mi Calm Calm - N/A   Scattered Clouds
6:35 PM 64.4 °F 44.6 °F 49% 29.93 in 10.0 mi SE 5.8 mph - N/A   Scattered Clouds
6:55 PM 64.4 °F 42.8 °F 45% 29.92 in 10.0 mi SSE 6.9 mph - N/A   Mostly Cloudy
7:15 PM 64.4 °F 41.0 °F 42% 29.94 in 10.0 mi Calm Calm - N/A   Overcast
7:35 PM 62.6 °F 42.8 °F 48% 29.95 in 10.0 mi Calm Calm - N/A   Overcast
7:55 PM 60.8 °F 46.4 °F 59% 29.95 in 10.0 mi Calm Calm - N/A   Overcast
8:15 PM 62.6 °F 44.6 °F 52% 29.94 in 10.0 mi Calm Calm - N/A   Mostly Cloudy
8:35 PM 62.6 °F 42.8 °F 48% 29.94 in 10.0 mi SE 4.6 mph - N/A   Mostly Cloudy
8:55 PM 62.6 °F 42.8 °F 48% 29.94 in 10.0 mi SSE 6.9 mph - N/A   Mostly Cloudy
9:15 PM 62.6 °F 42.8 °F 48% 29.93 in 10.0 mi SSE 10.4 mph - N/A   Scattered Clouds
9:35 PM 62.6 °F 42.8 °F 48% 29.94 in 10.0 mi South 5.8 mph - N/A   Partly Cloudy
9:55 PM 60.8 °F 42.8 °F 52% 29.94 in 10.0 mi SSE 5.8 mph - N/A   Scattered Clouds
10:15 PM 60.8 °F 42.8 °F 52% 29.94 in 10.0 mi SSE 6.9 mph - N/A   Scattered Clouds
10:35 PM 62.6 °F 42.8 °F 48% 29.96 in 10.0 mi SE 6.9 mph - N/A Thunderstorm Mostly Cloudy
10:55 PM 62.6 °F 46.4 °F 55% 29.96 in 10.0 mi North 9.2 mph - N/A   Light Drizzle
11:15 PM 59.0 °F 48.2 °F 67% 29.95 in 7.0 mi East 6.9 mph - N/A Rain Light Rain
11:35 PM 59.0 °F 46.4 °F 63% 29.97 in 10.0 mi Calm Calm - N/A   Mostly Cloudy
11:55 PM 55.4 °F 48.2 °F 77% 29.96 in 10.0 mi Calm Calm - N/A   Mostly Cloudy